This demonstration page uses our WeatherBlox Daily Observations layout. Learn more.

41.55636, -103.73856

Hourly Observations for December 24, 2016

Temp ( °F °C ) Dew Point ( °F °C ) Humidity (%) Winds ( mph kmh ) Pressure ( in mb ) Visibility ( mi km ) Precip ( " mm )
12:53 am 00:53 Clear 27 -2.8 11 -11.7 51 51 SW 5 7 29.9 1013 10 16.0934 0 0
1:53 am 01:53 Clear 24 -4.4 12 -11.1 60 60 WNW 6 9 29.93 1014 10 16.0934 0 0
2:53 am 02:53 Clear 26 -3.3 14 -10 60 60 VRB 5 7 29.91 1013 10 16.0934 0 0
3:53 am 03:53 Clear 27 -2.8 14 -10 58 58 E 8 13 29.89 1012 10 16.0934 0 0
4:53 am 04:53 Clear 28 -2.2 11 -11.7 49 49 ESE 10 17 29.91 1013 10 16.0934 0 0
5:53 am 05:53 Clear 24 -4.4 9 -12.8 52 52 ESE 8 13 29.93 1013 10 16.0934 0 0
6:53 am 06:53 Clear 22 -5.6 9 -12.8 57 57 E 9 15 29.95 1014 10 16.0934 0 0
7:53 am 07:53 Sunny 22 -5.6 10 -12.2 60 60 ESE 8 13 29.97 1015 10 16.0934 0 0
8:53 am 08:53 Sunny 30 -1.1 11 -11.7 45 45 ESE 6 9 29.94 1014 10 16.0934 0 0
9:53 am 09:53 Sunny 34 1.1 12 -11.1 40 40 ESE 5 7 29.92 1013 10 16.0934 0 0
10:53 am 10:53 Sunny 40 4.4 15 -9.4 36 36 ESE 7 11 29.88 1012 10 16.0934 0 0
11:53 am 11:53 Sunny 44 6.7 20 -6.7 38 38 VRB 3 6 29.83 1010 10 16.0934 0 0
12:53 pm 12:53 Sunny 47 8.3 22 -5.6 37 37 ESE 10 17 29.78 1009 10 16.0934 0 0
1:53 pm 13:53 Sunny 49 9.4 24 -4.4 38 38 ESE 14 22 29.74 1007 10 16.0934 0 0
2:53 pm 14:53 Sunny 51 10.6 27 -2.8 39 39 ESE 15 24 29.72 1007 10 16.0934 0 0
3:53 pm 15:53 Sunny 50 10 27 -2.8 41 41 SE 16 26 29.7 1006 10 16.0934 0 0
4:53 pm 16:53 Clear 42 5.6 26 -3.3 53 53 ESE 10 17 29.72 1006 10 16.0934 0 0
5:53 pm 17:53 Clear 39 3.9 26 -3.3 60 60 ESE 13 20 29.73 1007 10 16.0934 0 0
6:53 pm 18:53 Clear 39 3.9 28 -2.2 65 65 ESE 17 28 29.73 1007 10 16.0934 0 0
7:53 pm 19:53 Clear 39 3.9 27 -2.8 62 62 ESE 17 28 29.72 1006 10 16.0934 0 0
8:53 pm 20:53 Clear 35 1.7 26 -3.3 70 70 E 13 20 29.7 1006 10 16.0934 0 0
9:53 pm 21:53 Clear 33 0.6 25 -3.9 72 72 E 14 22 29.69 1005 10 16.0934 0 0
10:53 pm 22:53 Clear 31 -0.6 24 -4.4 76 76 ESE 14 22 29.67 1005 10 16.0934 0 0
11:53 pm 23:53 Clear 29 -1.7 24 -4.4 82 82 E 14 22 29.62 1003 10 16.0934 0 0

Powered by AerisWeather